Regional Weather Roundup
Issued by NWS

Home | Current Version | Previous Version | Graphics & Text | Print | Product List | Glossary On
Versions: 1 2 3 4 5 6 7 8 9 10 11 12 13 14 15 16 17 18 19 20 21 22 23 24 25 26 27 28 29 30 31 32 33 34 35 36 37 38 39 40 41 42 43 44 45 46 47 48 49 50
000
ASUS43 KFSD 211210
RWRSD

WEATHER ROUNDUP FOR SOUTH DAKOTA
NATIONAL WEATHER SERVICE SIOUX FALLS SD
700 AM CDT THU SEP 21 2017

NOTE: "FAIR" INDICATES FEW OR NO CLOUDS BELOW 12,000 FEET WITH NO
SIGNIFICANT WEATHER AND/OR OBSTRUCTIONS TO VISIBILITY.


SDZ001>005-009-010-012>017-211300-
NORTHWEST AND NORTH CENTRAL SOUTH DAKOTA

CITY           SKY/WX    TMP DP  RH WIND       PRES   REMARKS
BUFFALO          N/A     60  39  45 NE6       29.59R
FAITH            N/A     54  39  57 SE13      29.66S
MOBRIDGE       PTCLDY    60  48  64 SE16      29.69F
$$

SDZ012>016-024>037-041>051-057-063-072>074-211300-
SOUTHWEST AND SOUTH CENTRAL SOUTH DAKOTA

CITY           SKY/WX    TMP DP  RH WIND       PRES   REMARKS
RAPID CTY ARPT CLEAR     54  36  50 S13       29.66
PIERRE         CLEAR     55  44  66 SE15      29.74F
CUSTER         CLEAR     52  32  46 S5        29.74F
ELLSWORTH AFB  CLEAR     58  35  42 S14       29.63S
PHILIP         CLEAR     57  41  55 SE12      29.69S
PINE RIDGE     CLEAR     62  47  57 S24G39    29.69S
SPEARFISH      FAIR      48  37  66 S6        29.66F
WINNER         FAIR      54  47  77 SE13      29.78F
$$

SDZ004>011-016>023-039-040-211300-
NORTHEAST SOUTH DAKOTA

CITY           SKY/WX    TMP DP  RH WIND       PRES   REMARKS
ABERDEEN       CLEAR     48  45  89 S6        29.82S
WATERTOWN      CLEAR     55  45  68 SE12      29.86F
BROOKINGS      CLEAR     51  47  86 SE12      29.90S
SISSETON         N/A     48  46  93 S6        29.87F
$$

SDZ017-020-022-023-036>040-048>070-211300-
SOUTHEAST SOUTH DAKOTA

CITY           SKY/WX    TMP DP  RH WIND       PRES   REMARKS
SIOUX FALLS    CLEAR     54  50  86 E9        29.89F
HURON          CLEAR     51  47  86 SE8       29.84F
CHAMBERLAIN    CLEAR     53  50  90 SE7       29.79S
MITCHELL       CLEAR     52  47  83 S9        29.86S
YANKTON        CLEAR     50  47  89 E5        29.87S
$$

ABBREVIATIONS USED IN REMARKS
   TC - TEMPERATURE IN CELSIUS
  WCI - WIND CHILL INDEX
   HX - HEAT INDEX
  VSB - VISIBILITY





USA.gov is the U.S. government's official web portal to all federal, state and local government web resources and services.